Precipitable_Water
1.63 1.63 1.66 1.56 1.51 1.51 1.61 1.62 1.68 1.70 1.72 1.70 1.56 1.52 1.43 1.34 1.17 1.07 1.00 1.16 1.12 1.34 1.37 1.27 1.54 1.66 1.77 1.79 1.79 1.70 1.72 1.73 1.73 1.72 1.68 1.62 1.58 1.60 1.46 1.44 1.47 1.46 1.39 1.31 1.17 1.12 1.13 1.12 1.06 0.99 0.92 0.85 0.84 0.87 0.91 0.96 1.00 1.03 1.05 1.07 1.09 1.10 1.11 1.14 1.17 1.15 1.13 1.17 1.16 1.01 1.00 1.01 1.12 1.18
1.61 1.65 1.67 1.70 1.67 1.66 1.58 1.64 1.65 1.58 1.64 1.69 1.56 1.54 1.57 1.65 1.36 1.28 1.09 1.09 1.26 1.29 1.44 1.47 1.46 1.64 1.63 1.69 1.70 1.72 1.73 1.72 1.72 1.71 1.66 1.61 1.56 1.49 1.43 1.43 1.45 1.46 1.41 1.37 1.23 1.16 1.17 1.12 1.07 1.02 0.95 0.89 0.87 0.88 0.90 0.94 0.98 1.04 1.07 1.08 1.08 1.09 1.09 1.11 1.13 1.15 1.13 1.13 1.16 1.10 1.00 1.00 1.00 1.14
1.56 1.57 1.63 1.68 1.65 1.64 1.62 1.65 1.63 1.62 1.60 1.62 1.66 1.65 1.58 1.60 1.57 1.44 1.30 1.04 1.30 1.38 1.29 1.42 1.55 1.57 1.68 1.69 1.66 1.65 1.64 1.67 1.69 1.69 1.63 1.55 1.49 1.42 1.44 1.43 1.43 1.42 1.42 1.39 1.26 1.20 1.18 1.12 1.10 1.05 0.97 0.92 0.93 0.95 0.96 0.98 1.00 1.04 1.07 1.08 1.08 1.08 1.08 1.08 1.11 1.12 1.13 1.12 1.16 1.16 1.04 1.00 0.99 1.03
1.59 1.55 1.50 1.50 1.48 1.53 1.55 1.55 1.58 1.61 1.64 1.64 1.57 1.58 1.56 1.57 1.65 1.57 1.38 1.24 1.19 1.49 1.44 1.44 1.48 1.59 1.67 1.69 1.60 1.56 1.56 1.61 1.64 1.65 1.56 1.52 1.47 1.42 1.41 1.44 1.41 1.36 1.38 1.35 1.28 1.23 1.17 1.14 1.13 1.08 0.99 0.95 0.99 1.01 1.04 1.07 1.07 1.07 1.07 1.07 1.07 1.06 1.06 1.06 1.08 1.11 1.13 1.11 1.12 1.17 1.12 1.01 1.00 0.99
1.62 1.68 1.63 1.57 1.53 1.54 1.48 1.48 1.49 1.53 1.60 1.64 1.68 1.67 1.66 1.63 1.68 1.59 1.50 1.36 1.31 1.46 1.61 1.51 1.51 1.58 1.57 1.54 1.59 1.54 1.55 1.55 1.60 1.53 1.49 1.47 1.43 1.42 1.38 1.33 1.32 1.38 1.36 1.36 1.31 1.22 1.17 1.16 1.14 1.08 1.01 1.01 1.04 1.06 1.10 1.12 1.12 1.10 1.09 1.08 1.07 1.06 1.05 1.05 1.05 1.10 1.14 1.13 1.10 1.13 1.17 1.08 1.00 1.00
1.61 1.61 1.59 1.53 1.51 1.51 1.44 1.41 1.42 1.50 1.52 1.60 1.61 1.65 1.69 1.69 1.67 1.72 1.58 1.50 1.38 1.27 1.43 1.44 1.59 1.56 1.64 1.47 1.56 1.42 1.38 1.47 1.52 1.43 1.39 1.38 1.38 1.35 1.37 1.37 1.40 1.40 1.38 1.35 1.23 1.15 1.17 1.16 1.11 1.08 1.07 1.06 1.08 1.09 1.15 1.17 1.16 1.16 1.16 1.12 1.09 1.07 1.05 1.04 1.03 1.07 1.14 1.16 1.11 1.09 1.14 1.16 1.04 1.01
1.65 1.59 1.55 1.55 1.55 1.54 1.50 1.53 1.53 1.53 1.50 1.59 1.61 1.61 1.64 1.65 1.68 1.74 1.72 1.56 1.45 1.36 1.31 1.46 1.47 1.48 1.46 1.36 1.35 1.43 1.46 1.43 1.41 1.37 1.34 1.30 1.33 1.40 1.41 1.37 1.32 1.35 1.36 1.25 1.17 1.16 1.13 1.06 1.10 1.15 1.13 1.11 1.08 1.10 1.18 1.21 1.23 1.26 1.28 1.22 1.13 1.10 1.07 1.04 1.02 1.03 1.11 1.17 1.16 1.09 1.09 1.15 1.14 1.03
1.56 1.55 1.56 1.57 1.57 1.58 1.55 1.56 1.60 1.66 1.66 1.63 1.62 1.61 1.67 1.63 1.61 1.65 1.65 1.65 1.49 1.44 1.30 1.42 1.38 1.41 1.32 1.36 1.43 1.43 1.40 1.37 1.35 1.34 1.32 1.36 1.37 1.38 1.38 1.30 1.26 1.29 1.21 1.18 1.16 1.10 1.00 1.04 1.13 1.18 1.17 1.14 1.11 1.12 1.18 1.24 1.29 1.33 1.35 1.31 1.23 1.17 1.14 1.08 1.02 1.00 1.06 1.15 1.17 1.12 1.07 1.11 1.16 1.10
1.63 1.63 1.61 1.64 1.63 1.59 1.54 1.56 1.55 1.54 1.54 1.62 1.58 1.55 1.62 1.64 1.64 1.67 1.70 1.63 1.56 1.40 1.29 1.29 1.39 1.41 1.37 1.38 1.38 1.39 1.27 1.25 1.26 1.32 1.29 1.32 1.33 1.30 1.28 1.24 1.24 1.15 1.10 1.07 1.05 0.99 0.99 1.09 1.16 1.20 1.19 1.19 1.19 1.19 1.22 1.30 1.35 1.38 1.40 1.35 1.27 1.23 1.20 1.16 1.07 0.99 1.03 1.11 1.15 1.14 1.08 1.06 1.13 1.16
1.61 1.58 1.59 1.64 1.63 1.58 1.52 1.56 1.57 1.57 1.60 1.64 1.71 1.67 1.64 1.59 1.62 1.58 1.55 1.53 1.47 1.40 1.32 1.26 1.20 1.29 1.24 1.24 1.25 1.27 1.20 1.16 1.15 1.18 1.27 1.32 1.27 1.18 1.17 1.17 1.15 1.14 1.09 1.04 1.01 1.03 1.07 1.14 1.19 1.21 1.24 1.26 1.27 1.26 1.28 1.36 1.41 1.42 1.42 1.37 1.30 1.26 1.24 1.21 1.11 1.00 1.00 1.08 1.14 1.15 1.11 1.05 1.04 1.12
1.71 1.68 1.63 1.62 1.59 1.55 1.54 1.53 1.51 1.51 1.50 1.48 1.47 1.48 1.50 1.52 1.48 1.45 1.43 1.42 1.35 1.27 1.20 1.18 1.15 1.09 1.15 1.14 1.01 1.07 1.14 1.15 1.16 1.10 1.10 1.02 1.09 1.17 1.15 1.09 1.15 1.13 1.08 1.13 1.15 1.14 1.16 1.19 1.24 1.28 1.31 1.33 1.34 1.35 1.37 1.46 1.48 1.46 1.42 1.38 1.35 1.31 1.27 1.24 1.13 1.00 0.97 1.03 1.11 1.14 1.14 1.10 1.05 1.04
1.77 1.80 1.78 1.76 1.74 1.68 1.66 1.61 1.57 1.51 1.46 1.45 1.39 1.41 1.41 1.41 1.34 1.28 1.27 1.25 1.21 1.14 1.09 1.04 1.00 1.01 0.97 0.98 1.07 1.11 1.12 1.08 1.11 1.12 0.92 0.87 1.03 1.05 1.08 1.08 1.04 1.17 1.21 1.20 1.21 1.24 1.27 1.32 1.33 1.37 1.39 1.40 1.39 1.41 1.44 1.48 1.50 1.50 1.46 1.42 1.40 1.38 1.35 1.29 1.18 1.03 0.95 0.99 1.06 1.11 1.13 1.12 1.08 1.05
1.77 1.78 1.75 1.73 1.71 1.69 1.68 1.68 1.67 1.65 1.59 1.44 1.32 1.34 1.32 1.28 1.24 1.20 1.16 1.09 1.05 1.06 1.03 0.97 1.01 0.96 0.93 0.99 0.99 1.02 1.04 0.98 0.90 0.99 1.13 1.11 1.12 1.11 1.05 1.15 1.29 1.33 1.29 1.32 1.31 1.32 1.38 1.33 1.35 1.39 1.36 1.40 1.44 1.46 1.48 1.52 1.54 1.53 1.52 1.51 1.49 1.49 1.48 1.40 1.26 1.10 0.98 0.95 1.00 1.05 1.09 1.12 1.11 1.08
1.69 1.71 1.76 1.70 1.67 1.75 1.73 1.62 1.60 1.59 1.54 1.50 1.42 1.34 1.28 1.21 1.17 1.13 1.11 1.07 1.03 0.97 0.93 0.95 0.95 0.91 0.92 0.96 1.01 1.00 1.04 1.03 1.15 1.19 1.15 1.07 1.12 1.15 1.22 1.23 1.31 1.40 1.41 1.35 1.30 1.36 1.48 1.42 1.37 1.42 1.39 1.46 1.50 1.49 1.51 1.56 1.56 1.54 1.53 1.54 1.57 1.59 1.57 1.49 1.34 1.18 1.06 0.98 0.95 0.98 1.03 1.08 1.10 1.09
1.68 1.67 1.70 1.73 1.71 1.66 1.60 1.59 1.57 1.54 1.55 1.52 1.48 1.41 1.31 1.22 1.11 1.06 1.03 1.02 1.03 0.99 0.97 1.00 0.99 0.98 0.99 1.06 1.12 1.09 1.07 1.18 1.23 1.19 1.18 1.15 1.20 1.20 1.13 1.02 1.12 1.47 1.43 1.35 1.29 1.27 1.50 1.51 1.41 1.46 1.48 1.53 1.56 1.60 1.64 1.61 1.58 1.57 1.59 1.60 1.62 1.65 1.64 1.57 1.46 1.31 1.17 1.08 1.01 0.96 0.97 1.01 1.07 1.08
1.66 1.66 1.56 1.51 1.47 1.61 1.63 1.65 1.68 1.68 1.67 1.66 1.61 1.52 1.42 1.32 1.27 1.25 1.17 1.09 1.07 1.08 1.06 1.07 1.12 1.13 1.11 1.12 1.16 1.19 1.24 1.27 1.22 1.25 1.30 1.32 1.28 1.21 1.14 1.13 1.07 1.33 1.55 1.39 1.27 1.21 1.47 1.60 1.63 1.62 1.64 1.65 1.68 1.69 1.72 1.72 1.69 1.67 1.66 1.66 1.67 1.71 1.74 1.70 1.62 1.51 1.35 1.21 1.12 1.05 1.00 1.00 1.02 1.05
1.45 1.58 1.58 1.53 1.53 1.60 1.67 1.71 1.67 1.69 1.61 1.58 1.54 1.49 1.47 1.44 1.39 1.32 1.31 1.33 1.29 1.28 1.22 1.18 1.14 1.14 1.16 1.15 1.24 1.34 1.34 1.40 1.34 1.39 1.34 1.34 1.32 1.31 1.24 1.23 1.24 1.34 1.57 1.44 1.33 1.23 1.42 1.62 1.64 1.63 1.71 1.72 1.73 1.74 1.78 1.80 1.77 1.77 1.77 1.76 1.74 1.78 1.81 1.81 1.76 1.67 1.53 1.38 1.25 1.19 1.12 1.05 1.02 1.03
1.36 1.41 1.40 1.45 1.54 1.64 1.67 1.64 1.58 1.58 1.66 1.57 1.48 1.45 1.46 1.46 1.49 1.52 1.52 1.50 1.47 1.45 1.38 1.30 1.18 1.25 1.31 1.25 1.34 1.48 1.57 1.50 1.41 1.36 1.32 1.38 1.34 1.31 1.29 1.36 1.40 1.51 1.66 1.50 1.41 1.27 1.47 1.71 1.64 1.57 1.67 1.77 1.79 1.82 1.85 1.87 1.90 1.87 1.85 1.84 1.84 1.84 1.85 1.84 1.82 1.76 1.66 1.55 1.43 1.35 1.28 1.21 1.13 1.06
1.37 1.34 1.40 1.49 1.57 1.62 1.63 1.70 1.70 1.65 1.70 1.65 1.57 1.51 1.50 1.54 1.62 1.63 1.59 1.58 1.56 1.54 1.50 1.40 1.35 1.38 1.45 1.47 1.55 1.63 1.69 1.62 1.55 1.53 1.50 1.51 1.51 1.51 1.55 1.53 1.57 1.57 1.71 1.69 1.59 1.28 1.38 1.60 1.57 1.60 1.68 1.77 1.81 1.90 1.90 1.91 1.93 1.94 1.93 1.93 1.94 1.92 1.89 1.87 1.86 1.84 1.80 1.75 1.67 1.57 1.47 1.38 1.27 1.19
1.55 1.61 1.52 1.41 1.39 1.43 1.50 1.54 1.64 1.65 1.64 1.60 1.53 1.46 1.48 1.48 1.53 1.52 1.53 1.55 1.57 1.61 1.65 1.65 1.63 1.61 1.62 1.64 1.64 1.66 1.68 1.70 1.71 1.71 1.72 1.70 1.65 1.58 1.48 1.39 1.51 1.52 1.73 1.79 1.65 1.50 1.50 1.66 1.56 1.60 1.75 1.80 1.77 1.84 1.87 1.89 1.91 1.98 2.02 2.00 1.97 1.94 1.95 1.96 1.91 1.89 1.87 1.85 1.81 1.76 1.71 1.61 1.48 1.33
1.40 1.42 1.51 1.52 1.49 1.51 1.54 1.62 1.65 1.68 1.68 1.68 1.65 1.61 1.53 1.52 1.48 1.42 1.47 1.49 1.50 1.51 1.58 1.62 1.68 1.73 1.75 1.76 1.78 1.82 1.88 1.89 1.89 1.81 1.65 1.58 1.67 1.58 1.48 1.50 1.55 1.61 1.77 1.87 1.88 1.74 1.63 1.78 1.74 1.67 1.75 1.78 1.74 1.79 1.86 1.91 1.93 1.98 2.03 2.05 2.01 1.96 1.95 2.03 2.06 1.98 1.92 1.90 1.88 1.84 1.81 1.76 1.67 1.54
1.39 1.38 1.40 1.40 1.41 1.44 1.50 1.58 1.67 1.73 1.77 1.68 1.58 1.54 1.51 1.40 1.32 1.39 1.52 1.58 1.67 1.68 1.68 1.70 1.74 1.78 1.80 1.81 1.84 1.91 1.96 1.97 1.94 1.79 1.59 1.70 1.74 1.63 1.64 1.55 1.62 1.73 1.81 1.90 2.03 1.75 1.69 1.80 1.87 1.76 1.77 1.76 1.83 1.85 1.89 1.97 1.98 1.97 2.02 2.03 2.01 2.00 2.00 2.02 2.05 2.06 2.03 1.95 1.90 1.88 1.85 1.80 1.73 1.65
1.54 1.51 1.48 1.50 1.51 1.53 1.56 1.60 1.62 1.70 1.72 1.61 1.54 1.49 1.41 1.34 1.35 1.50 1.60 1.61 1.62 1.63 1.63 1.69 1.74 1.74 1.78 1.81 1.82 1.84 1.89 1.96 2.00 1.97 1.89 1.90 1.83 1.72 1.72 1.70 1.68 1.60 1.71 1.97 2.07 1.72 1.71 1.74 1.82 1.80 1.67 1.54 1.72 1.96 1.95 1.94 1.99 1.99 1.97 1.95 2.01 2.07 2.08 2.09 2.09 2.08 2.08 2.06 1.98 1.90 1.87 1.82 1.76 1.70
1.67 1.67 1.65 1.65 1.68 1.69 1.67 1.67 1.72 1.81 1.88 1.83 1.77 1.66 1.55 1.50 1.49 1.64 1.64 1.64 1.64 1.61 1.61 1.61 1.63 1.63 1.70 1.75 1.80 1.86 1.93 1.99 2.03 2.05 2.05 2.00 1.94 1.84 1.75 1.71 1.75 1.69 1.75 2.03 2.16 1.88 1.82 1.86 1.79 1.93 1.82 1.63 1.50 1.70 1.88 1.91 1.97 1.99 1.99 1.97 2.00 2.11 2.16 2.13 2.12 2.13 2.10 2.10 2.09 2.04 1.94 1.87 1.82 1.78
1.79 1.77 1.77 1.80 1.78 1.75 1.75 1.79 1.82 1.84 1.89 1.92 1.90 1.84 1.73 1.71 1.73 1.79 1.72 1.70 1.70 1.65 1.65 1.65 1.65 1.66 1.69 1.73 1.80 1.86 1.90 1.94 1.99 2.03 2.06 2.08 2.07 1.98 1.87 1.79 1.75 1.76 1.88 2.09 2.19 2.03 1.85 1.88 1.79 1.87 1.86 1.83 1.79 1.74 1.78 1.82 1.92 1.95 1.99 1.98 1.94 2.08 2.17 2.18 2.16 2.13 2.13 2.14 2.15 2.14 2.08 2.02 1.98 1.90
1.88 1.81 1.77 1.76 1.77 1.76 1.74 1.75 1.81 1.85 1.88 1.90 1.91 1.90 1.88 1.86 1.82 1.78 1.79 1.78 1.76 1.75 1.73 1.72 1.72 1.75 1.76 1.75 1.80 1.83 1.87 1.90 1.97 2.04 2.07 2.10 2.09 2.10 2.06 1.94 1.82 1.76 1.79 2.08 2.17 2.08 1.97 1.86 1.87 1.80 1.79 1.73 1.74 1.84 1.74 1.74 1.89 1.97 1.98 1.99 2.03 2.09 2.16 2.12 2.11 2.10 2.11 2.10 2.08 2.10 2.11 2.11 2.06 2.03
1.87 1.90 1.87 1.85 1.81 1.75 1.74 1.74 1.77 1.81 1.84 1.86 1.87 1.88 1.88 1.83 1.78 1.77 1.74 1.72 1.70 1.71 1.75 1.78 1.77 1.79 1.79 1.77 1.77 1.80 1.81 1.89 1.96 1.97 1.99 2.03 2.06 2.08 2.13 2.13 2.11 2.06 2.07 2.13 2.18 2.11 2.02 1.91 1.98 1.87 1.77 1.81 1.73 1.75 1.76 1.72 1.77 1.96 1.94 1.96 1.97 2.03 2.11 2.12 2.10 2.10 2.12 2.12 2.12 2.14 2.13 2.14 2.14 2.10
1.90 1.86 1.83 1.78 1.73 1.69 1.67 1.70 1.73 1.78 1.83 1.86 1.87 1.89 1.86 1.79 1.75 1.71 1.69 1.69 1.74 1.77 1.78 1.78 1.80 1.81 1.86 1.86 1.81 1.81 1.87 1.90 1.93 1.96 1.98 1.99 2.01 2.02 2.04 2.03 2.03 2.09 2.11 2.09 2.09 2.09 2.05 1.95 1.95 2.00 1.98 1.85 1.73 1.64 1.59 1.78 1.87 1.89 1.84 1.93 1.93 1.95 2.01 2.04 2.04 2.04 2.08 2.14 2.13 2.14 2.08 2.06 2.10 2.07
1.86 1.72 1.64 1.63 1.64 1.63 1.64 1.67 1.69 1.67 1.66 1.67 1.69 1.69 1.72 1.77 1.77 1.78 1.80 1.81 1.87 1.86 1.83 1.82 1.82 1.83 1.88 1.91 1.93 1.93 1.89 1.86 1.87 1.87 1.87 1.89 1.90 1.90 1.87 1.84 1.85 1.86 1.89 1.92 1.93 1.97 1.98 1.98 1.95 1.96 2.02 2.00 1.84 1.79 1.75 1.65 1.69 1.74 1.82 1.76 1.68 1.83 1.92 2.01 2.06 2.06 2.08 2.10 2.09 2.10 2.09 2.10 2.09 2.12
1.62 1.57 1.55 1.53 1.53 1.58 1.60 1.61 1.63 1.71 1.74 1.74 1.73 1.71 1.72 1.76 1.79 1.83 1.85 1.84 1.82 1.80 1.83 1.84 1.81 1.81 1.81 1.79 1.78 1.76 1.70 1.60 1.58 1.60 1.55 1.45 1.37 1.33 1.29 1.26 1.28 1.37 1.52 1.62 1.71 1.81 1.94 1.96 1.92 1.90 1.86 1.87 1.86 1.74 1.71 1.64 1.57 1.65 1.73 1.73 1.75 1.82 1.89 1.91 1.90 1.96 1.99 2.01 2.05 2.05 2.13 2.21 2.18 2.11
1.37 1.34 1.36 1.44 1.54 1.60 1.63 1.57 1.62 1.60 1.61 1.58 1.60 1.63 1.68 1.74 1.78 1.82 1.86 1.85 1.81 1.73 1.68 1.61 1.56 1.54 1.50 1.40 1.30 1.20 1.21 1.22 1.24 1.24 1.16 1.11 1.07 1.07 1.11 1.09 1.07 1.12 1.27 1.44 1.54 1.64 1.75 1.81 1.84 1.78 1.62 1.60 1.62 1.58 1.54 1.54 1.50 1.57 1.64 1.72 1.73 1.56 1.70 1.83 1.88 1.88 1.92 1.97 1.99 2.02 2.08 2.15 2.13 2.07
1.11 1.08 1.10 1.22 1.34 1.37 1.35 1.30 1.28 1.32 1.35 1.44 1.43 1.45 1.46 1.43 1.42 1.55 1.63 1.63 1.52 1.44 1.37 1.31 1.28 1.23 1.22 1.17 1.11 1.13 1.14 1.17 1.18 1.18 1.10 1.02 0.96 0.99 0.98 0.93 0.92 0.96 1.00 1.08 1.17 1.28 1.37 1.44 1.42 1.44 1.42 1.37 1.25 1.25 1.29 1.27 1.29 1.40 1.49 1.59 1.67 1.75 1.83 1.80 1.82 1.86 1.94 1.93 1.86 1.85 1.93 1.99 1.98 1.92
0.87 0.84 0.87 1.00 1.09 1.20 1.21 1.15 1.14 1.13 1.14 1.21 1.13 1.14 1.12 1.07 1.15 1.20 1.18 1.13 1.10 1.10 1.11 1.09 1.10 1.11 1.08 1.02 1.04 1.07 1.08 1.11 1.11 1.14 1.06 1.05 1.03 1.03 1.01 0.95 0.94 0.93 0.90 0.90 0.94 0.97 0.98 0.99 1.01 0.96 0.88 0.84 0.88 0.95 1.02 1.03 1.10 1.23 1.33 1.50 1.61 1.62 1.71 1.80 1.81 1.81 1.84 1.75 1.67 1.66 1.67 1.76 1.78 1.73
0.77 0.81 0.90 0.94 1.08 1.13 1.11 1.02 1.01 1.01 1.00 1.02 1.01 1.03 1.04 1.04 1.06 1.08 1.06 1.05 1.03 1.03 1.00 0.99 0.95 0.92 0.88 0.91 0.97 0.97 0.93 0.93 0.94 0.96 0.99 0.98 0.97 0.88 0.89 0.90 0.92 0.95 0.93 0.93 0.94 0.93 0.92 0.90 0.81 0.70 0.72 0.78 0.86 0.89 0.91 0.90 0.95 1.13 1.39 1.52 1.52 1.47 1.56 1.60 1.55 1.46 1.37 1.29 1.24 1.18 1.17 1.19 1.28 1.36
0.77 0.81 0.86 0.96 1.03 1.05 1.03 1.00 1.05 1.03 1.00 1.00 0.97 0.96 0.96 0.94 0.95 0.97 0.93 0.91 0.92 0.91 0.88 0.85 0.80 0.80 0.82 0.83 0.81 0.76 0.74 0.74 0.76 0.78 0.80 0.76 0.73 0.74 0.76 0.75 0.78 0.81 0.79 0.77 0.78 0.81 0.79 0.71 0.63 0.61 0.66 0.73 0.75 0.85 0.97 1.13 1.16 1.26 1.15 1.06 1.02 0.96 0.93 0.93 0.92 0.96 0.99 0.99 0.97 0.89 0.89 0.95 1.01 1.13
0.73 0.81 0.85 0.89 0.94 0.98 0.97 0.97 0.95 0.95 0.95 0.95 0.91 0.88 0.85 0.81 0.84 0.84 0.81 0.81 0.84 0.83 0.79 0.75 0.75 0.76 0.79 0.77 0.73 0.69 0.69 0.69 0.68 0.68 0.64 0.64 0.63 0.63 0.64 0.65 0.65 0.65 0.65 0.64 0.64 0.62 0.56 0.54 0.57 0.57 0.55 0.57 0.59 0.58 0.68 1.16 1.07 0.92 0.77 0.69 0.67 0.60 0.56 0.60 0.68 0.77 0.83 0.87 0.93 0.92 0.85 0.85 0.94 1.09
0.63 0.70 0.76 0.79 0.88 0.90 0.88 0.90 0.90 0.89 0.88 0.86 0.85 0.83 0.80 0.79 0.84 0.82 0.81 0.84 0.83 0.80 0.78 0.75 0.73 0.77 0.79 0.76 0.72 0.73 0.73 0.70 0.68 0.68 0.65 0.64 0.64 0.64 0.61 0.60 0.59 0.60 0.60 0.60 0.56 0.53 0.56 0.58 0.62 0.62 0.58 0.55 0.50 0.46 0.48 0.57 0.53 0.52 0.49 0.43 0.40 0.43 0.51 0.58 0.67 0.72 0.82 0.90 0.91 0.96 1.00 1.02 1.01 1.08
0.61 0.68 0.72 0.74 0.77 0.81 0.83 0.85 0.86 0.85 0.83 0.82 0.80 0.78 0.79 0.79 0.81 0.81 0.82 0.82 0.79 0.76 0.74 0.72 0.71 0.75 0.75 0.73 0.72 0.71 0.71 0.73 0.72 0.70 0.69 0.68 0.66 0.65 0.64 0.62 0.62 0.61 0.57 0.52 0.54 0.59 0.65 0.68 0.68 0.67 0.66 0.56 0.49 0.44 0.38 0.38 0.38 0.44 0.57 0.57 0.53 0.53 0.60 0.64 0.63 0.61 0.62 0.72 0.78 0.84 0.87 0.80 0.82 0.89
0.73 0.67 0.71 0.70 0.72 0.75 0.77 0.78 0.78 0.78 0.78 0.78 0.77 0.77 0.77 0.77 0.77 0.77 0.77 0.77 0.76 0.73 0.72 0.72 0.73 0.73 0.73 0.76 0.77 0.74 0.72 0.71 0.69 0.69 0.69 0.69 0.69 0.67 0.67 0.66 0.62 0.59 0.56 0.55 0.58 0.64 0.68 0.66 0.66 0.69 0.66 0.59 0.54 0.51 0.49 0.45 0.39 0.46 0.62 0.72 0.71 0.65 0.65 0.67 0.64 0.62 0.58 0.52 0.53 0.58 0.59 0.63 0.67 0.70
0.86 0.82 0.78 0.75 0.75 0.74 0.72 0.72 0.74 0.75 0.75 0.75 0.75 0.76 0.75 0.73 0.74 0.74 0.73 0.71 0.69 0.70 0.72 0.74 0.74 0.73 0.75 0.76 0.74 0.73 0.72 0.71 0.70 0.69 0.68 0.68 0.67 0.65 0.63 0.62 0.59 0.59 0.58 0.59 0.59 0.61 0.62 0.63 0.65 0.64 0.62 0.62 0.63 0.67 0.67 0.65 0.62 0.61 0.66 0.74 0.78 0.75 0.70 0.64 0.58 0.58 0.57 0.63 0.65 0.56 0.47 0.47 0.45 0.52
0.85 0.85 0.86 0.86 0.84 0.81 0.78 0.77 0.76 0.75 0.75 0.74 0.74 0.75 0.74 0.73 0.71 0.70 0.69 0.70 0.70 0.70 0.71 0.74 0.74 0.72 0.71 0.71 0.71 0.70 0.67 0.67 0.67 0.67 0.66 0.64 0.63 0.62 0.61 0.59 0.57 0.60 0.58 0.57 0.58 0.59 0.61 0.66 0.71 0.74 0.75 0.74 0.74 0.75 0.68 0.61 0.53 0.52 0.52 0.57 0.68 0.73 0.77 0.80 0.76 0.70 0.62 0.57 0.55 0.53 0.51 0.51 0.53 0.54
0.85 0.82 0.85 0.86 0.85 0.85 0.85 0.84 0.83 0.81 0.80 0.79 0.77 0.74 0.72 0.71 0.70 0.70 0.69 0.69 0.69 0.69 0.71 0.71 0.70 0.69 0.69 0.70 0.70 0.69 0.66 0.64 0.64 0.63 0.62 0.60 0.58 0.57 0.57 0.56 0.55 0.56 0.54 0.51 0.53 0.56 0.63 0.70 0.72 0.72 0.70 0.70 0.69 0.62 0.55 0.54 0.52 0.52 0.54 0.56 0.61 0.71 0.73 0.71 0.67 0.69 0.71 0.69 0.66 0.62 0.62 0.62 0.64 0.57
0.82 0.81 0.81 0.83 0.84 0.84 0.86 0.84 0.82 0.82 0.81 0.81 0.79 0.77 0.75 0.73 0.72 0.70 0.69 0.68 0.67 0.67 0.67 0.67 0.68 0.68 0.67 0.68 0.69 0.68 0.66 0.64 0.63 0.61 0.59 0.59 0.58 0.55 0.54 0.56 0.56 0.57 0.56 0.55 0.56 0.59 0.63 0.66 0.66 0.67 0.68 0.64 0.61 0.60 0.53 0.55 0.58 0.58 0.57 0.55 0.54 0.56 0.59 0.63 0.69 0.73 0.78 0.81 0.83 0.80 0.76 0.68 0.59 0.49
0.77 0.79 0.80 0.82 0.82 0.84 0.86 0.86 0.85 0.84 0.82 0.80 0.79 0.78 0.76 0.73 0.71 0.70 0.71 0.70 0.69 0.68 0.68 0.67 0.67 0.67 0.67 0.67 0.66 0.64 0.64 0.63 0.62 0.61 0.60 0.59 0.59 0.58 0.56 0.56 0.57 0.57 0.55 0.53 0.52 0.53 0.57 0.61 0.65 0.65 0.58 0.56 0.59 0.57 0.54 0.54 0.53 0.56 0.57 0.57 0.55 0.52 0.50 0.56 0.61 0.61 0.59 0.57 0.58 0.60 0.63 0.67 0.70 0.70
0.76 0.77 0.78 0.78 0.79 0.82 0.83 0.84 0.84 0.84 0.83 0.81 0.79 0.78 0.76 0.74 0.72 0.72 0.72 0.71 0.69 0.68 0.68 0.67 0.65 0.65 0.64 0.64 0.63 0.60 0.62 0.63 0.62 0.61 0.60 0.59 0.57 0.57 0.56 0.56 0.55 0.52 0.50 0.50 0.51 0.52 0.55 0.55 0.56 0.59 0.58 0.58 0.58 0.56 0.56 0.56 0.54 0.54 0.53 0.52 0.51 0.54 0.55 0.53 0.48 0.46 0.47 0.49 0.62 0.70 0.72 0.76 0.80 0.83
Wind_Speed
4 4 4 4 4 4 4 4 4 4 5 5 5 5 5 5 6 6 7 7 8 8 9 9 9 10 11 11 11 11 11 11 11 12 12 13 13 13 14 14 14 13 13 13 13 13 14 14 15 15 16 16 17 17 17 17 17 16 15 15 14 14 14 14 14 14 14 13 13 14 15 15 14 14
5 5 5 4 4 5 5 5 5 5 5 5 5 5 5 6 6 6 7 7 8 8 9 9 9 10 11 11 11 11 11 11 11 11 12 13 14 14 14 15 15 14 12 12 13 13 13 14 14 15 16 16 16 17 17 17 17 16 16 15 14 13 13 13 13 13 13 13 12 12 13 13 13 13
5 5 5 5 5 5 5 5 5 5 5 5 5 5 6 6 6 6 7 7 8 8 9 9 9 10 10 11 11 11 11 11 11 11 12 13 14 14 14 15 16 14 12 12 12 13 13 14 14 15 16 16 16 17 17 17 17 16 15 15 14 13 13 12 12 12 12 12 11 11 11 11 12 12
5 5 5 6 6 6 6 6 6 6 6 6 6 6 6 6 6 6 7 7 8 8 8 9 9 9 10 10 10 11 11 11 11 12 13 13 14 14 15 16 15 13 13 13 12 13 13 14 14 14 15 16 16 17 17 17 16 16 15 15 14 13 13 12 12 11 11 11 11 10 10 9 10 10
5 5 5 6 6 6 6 6 6 6 6 6 6 6 6 6 6 6 6 7 8 8 8 9 9 9 9 10 10 10 11 11 11 12 13 13 14 14 15 15 14 13 13 13 13 13 14 14 14 14 15 15 16 17 17 17 16 16 15 14 14 14 13 12 11 11 10 10 10 10 9 8 8 8
6 6 6 6 6 6 6 6 6 6 6 6 6 6 6 6 6 6 6 6 7 8 9 9 9 9 9 10 10 10 11 11 11 12 13 13 13 14 14 14 14 14 13 13 13 14 14 14 14 15 15 15 16 17 17 17 16 15 15 14 14 13 13 12 11 11 10 9 9 8 8 8 7 7
6 6 6 6 6 6 6 6 6 6 6 6 6 6 6 6 6 6 6 6 7 8 8 8 9 9 10 10 10 11 11 11 12 12 13 13 13 13 13 14 14 14 13 13 14 14 14 15 15 15 14 15 17 17 17 16 16 15 14 14 14 13 13 12 12 11 10 9 8 7 7 7 7 6
6 6 6 6 6 6 6 6 6 6 6 6 6 6 6 6 6 6 6 7 7 8 8 9 9 10 10 11 11 11 11 12 12 12 12 13 13 13 13 14 14 14 14 14 14 14 14 15 16 15 15 16 17 17 17 16 15 14 14 14 14 14 13 13 12 11 10 9 8 7 6 6 6 6
7 7 7 7 6 6 6 6 6 6 6 6 6 6 6 6 7 7 7 7 8 8 9 9 10 10 11 11 11 11 12 12 12 12 12 13 13 13 14 14 14 14 14 14 15 15 15 16 16 15 16 17 18 17 17 16 15 14 14 14 15 14 14 13 12 11 10 9 8 7 6 6 6 5
8 8 8 8 8 7 7 7 7 7 7 7 7 7 7 7 8 8 8 9 9 9 10 10 11 11 11 11 11 12 12 13 13 13 13 13 13 14 14 14 14 15 15 15 16 16 16 16 16 16 16 17 18 18 17 16 15 14 14 14 15 15 14 13 12 11 10 9 8 7 6 6 5 5
10 9 9 9 9 9 8 8 8 8 8 8 8 8 8 8 9 9 9 9 10 10 11 11 11 11 12 12 12 12 13 13 13 13 13 14 14 14 13 14 15 16 16 17 17 17 16 16 16 17 17 18 18 18 17 17 16 15 14 14 14 14 14 14 13 11 10 9 9 8 7 7 6 6
11 11 11 11 10 10 10 9 9 9 9 9 9 9 9 9 10 10 10 10 11 11 11 12 12 13 13 13 13 13 13 13 14 14 14 14 14 14 15 15 16 17 17 17 17 17 17 17 18 18 18 19 19 18 17 17 16 15 14 14 14 15 14 14 13 12 11 10 9 9 8 8 7 7
12 12 12 12 12 12 12 12 11 11 10 10 11 11 11 11 11 11 12 12 12 12 13 13 13 14 14 14 14 14 14 14 15 14 14 14 15 16 17 17 17 17 18 18 18 18 19 19 19 19 19 19 18 17 17 17 16 14 14 15 15 15 15 14 13 12 11 10 10 9 9 9 8 8
14 14 13 13 13 13 13 13 13 13 13 13 13 13 13 13 13 13 13 13 13 14 14 14 14 15 15 15 15 15 15 15 15 15 15 16 17 17 18 17 17 18 18 19 19 19 20 20 20 19 19 19 18 17 17 16 15 15 15 15 15 15 15 15 13 12 12 11 11 10 10 10 9 9
15 15 14 14 15 15 14 14 14 15 15 15 15 15 15 15 15 15 15 15 15 15 15 15 15 15 16 16 16 16 16 16 16 16 17 17 18 18 18 18 19 19 19 20 21 20 20 20 20 19 19 18 18 17 17 16 15 15 16 16 16 16 16 15 14 13 12 12 11 11 11 10 10 10
16 16 16 16 15 15 15 15 15 15 15 15 15 15 15 15 16 16 16 16 16 16 16 17 17 17 17 17 17 17 17 17 17 18 18 18 18 19 19 20 20 21 21 21 21 21 20 20 19 19 19 18 18 18 17 17 16 16 16 16 16 17 16 16 15 15 14 13 12 12 11 11 11 11
17 17 17 17 17 16 16 16 16 16 16 17 17 17 17 17 17 17 18 18 18 18 18 18 19 18 18 18 18 18 18 18 18 18 19 19 19 20 20 21 22 23 23 22 22 21 21 20 20 20 19 19 19 18 18 18 17 17 17 17 17 17 17 17 17 16 15 14 13 13 12 12 12 12
19 19 18 18 18 18 18 18 18 18 18 18 18 19 19 18 18 19 19 19 19 19 20 20 20 20 20 19 19 19 19 19 19 19 20 21 21 21 22 23 23 24 23 22 21 21 21 21 21 21 20 20 19 19 19 19 19 19 19 18 18 18 17 17 17 17 16 15 14 14 14 13 13 13
20 20 20 19 19 19 19 19 19 19 19 19 19 19 19 19 19 19 19 20 20 20 20 21 21 22 21 20 20 20 19 19 20 21 22 22 23 24 24 24 24 24 23 22 21 21 22 22 22 22 21 20 20 20 20 21 20 20 19 19 18 18 18 18 18 18 17 16 16 15 15 15 15 14
20 20 20 20 20 20 20 20 20 20 20 21 20 20 20 20 20 20 20 21 21 21 20 20 21 21 21 21 21 21 21 21 22 23 24 24 24 24 24 24 24 23 22 22 21 21 22 22 22 22 22 21 21 21 21 21 21 20 19 19 19 19 19 19 19 18 18 18 17 17 16 16 16 16
22 21 21 21 21 21 21 21 21 21 21 21 21 21 21 21 21 22 22 22 21 21 21 22 22 22 22 22 22 22 23 23 24 24 25 25 25 25 24 24 23 23 23 22 21 21 22 22 22 22 22 22 22 22 22 22 21 20 20 20 20 20 20 20 20 19 19 19 19 18 17 17 16 16
23 23 23 22 23 23 23 23 22 22 22 22 22 22 22 22 22 22 22 22 22 22 23 23 23 23 23 23 23 24 24 25 25 25 26 25 25 25 25 24 24 24 23 22 21 22 22 22 23 23 23 23 23 22 22 22 22 21 21 22 22 21 20 20 20 20 20 20 19 19 19 18 17 16
24 24 23 22 22 23 23 22 23 22 22 22 22 22 22 23 23 22 22 23 23 23 24 24 24 24 24 24 25 25 26 26 26 25 25 25 24 24 24 25 24 23 22 22 22 23 23 23 23 23 23 22 22 22 22 22 22 22 22 22 21 21 20 20 20 20 20 20 20 20 19 18 18 17
23 23 23 23 22 22 22 22 22 22 22 22 22 23 23 23 23 24 24 25 25 25 25 25 25 25 25 25 26 26 26 26 26 25 24 24 24 24 24 24 24 23 23 23 23 24 24 24 24 24 23 22 22 22 22 22 22 21 21 21 21 21 20 20 20 20 20 20 20 21 20 19 19 19
22 22 22 22 22 22 22 23 22 23 23 23 23 23 24 24 24 25 25 25 26 26 25 25 25 25 25 25 26 26 26 26 25 25 25 25 25 24 24 24 24 24 24 24 24 24 24 24 24 24 23 22 22 22 22 22 21 21 20 20 20 20 20 19 19 20 20 20 21 21 20 20 20 20
21 21 21 21 21 21 22 23 23 23 24 24 23 24 24 24 24 25 25 25 25 25 25 25 25 25 25 25 25 25 25 25 25 25 25 25 25 25 24 24 24 24 25 25 25 25 25 24 24 23 23 22 22 21 21 21 21 20 21 21 20 20 20 19 19 20 20 21 21 21 21 21 22 22
22 22 22 22 22 22 23 24 24 25 25 24 24 24 24 24 24 24 24 24 24 25 24 24 24 24 25 25 24 24 25 25 25 25 25 25 25 25 24 24 24 24 25 26 25 24 24 24 23 23 23 22 22 21 21 21 21 21 21 21 20 20 20 20 20 21 21 21 21 21 21 22 22 22
24 24 24 24 24 24 25 25 26 25 25 25 25 25 24 24 23 23 23 23 23 23 24 24 24 23 23 23 23 24 24 24 24 24 24 24 24 24 24 24 24 24 25 25 24 24 23 23 23 23 22 22 22 21 21 21 21 21 21 21 20 20 21 21 21 21 21 21 21 21 21 22 22 22
22 23 24 24 25 25 24 24 24 24 24 24 24 24 24 24 23 23 23 22 22 23 23 23 23 23 23 23 23 24 24 24 24 24 24 24 24 24 24 24 24 24 24 24 24 23 23 22 22 22 22 21 21 21 21 22 22 21 21 21 21 21 21 20 20 20 20 21 21 21 22 22 22 22
17 18 19 20 21 21 20 20 20 21 21 21 22 22 22 22 22 22 22 22 22 22 22 22 22 23 23 24 24 24 24 24 24 24 24 24 24 24 25 25 25 25 24 24 23 23 22 22 21 21 21 21 21 22 22 22 22 22 22 22 22 22 21 21 21 21 21 21 21 21 22 22 21 21
15 16 16 17 17 17 17 18 18 18 19 19 19 20 20 20 20 21 21 21 20 21 21 22 22 23 23 24 24 24 24 24 24 24 24 25 25 25 25 25 25 25 24 24 24 23 23 22 22 22 23 23 23 23 24 24 24 24 23 23 22 22 22 22 22 22 21 21 22 22 22 22 21 21
17 17 17 17 16 16 16 16 17 17 17 17 18 19 19 19 20 20 20 20 20 21 22 23 24 24 24 25 25 25 24 24 24 25 25 25 25 25 25 25 25 25 24 25 25 25 24 24 24 24 24 24 25 25 25 25 25 25 25 24 23 23 23 23 23 23 23 23 23 23 23 22 22 22
19 18 18 18 18 18 18 18 18 18 18 18 18 18 18 19 20 20 20 21 22 23 24 24 25 25 25 25 25 25 25 25 25 25 26 26 26 26 26 26 26 26 26 25 26 26 26 26 26 26 26 26 26 26 26 26 26 26 25 25 25 24 24 24 24 24 24 24 25 25 24 24 24 25
20 20 20 20 20 20 20 21 21 20 20 20 20 19 20 20 21 21 21 22 23 24 25 25 25 25 26 26 25 25 26 26 26 26 26 26 27 27 27 27 26 26 26 26 26 26 27 28 28 28 28 27 27 26 26 26 26 26 25 25 26 26 26 26 27 27 27 27 28 28 28 27 27 27
21 21 21 22 22 22 21 22 22 21 21 21 21 21 21 22 22 22 22 23 24 24 25 25 25 25 26 25 25 26 26 27 27 27 27 27 27 27 27 27 27 27 27 27 27 28 29 30 30 30 29 28 28 27 26 25 25 26 26 27 28 29 29 30 30 30 30 30 30 30 30 29 28 28
22 22 22 22 23 23 23 23 22 22 22 22 22 22 22 23 23 23 24 24 25 24 25 25 25 25 26 26 26 27 27 27 27 27 27 28 28 28 28 28 28 28 28 29 29 30 31 31 30 30 30 29 28 27 27 27 28 29 30 31 32 32 33 33 32 32 32 31 31 31 30 30 29 29
23 23 22 22 23 23 23 23 23 23 23 23 23 23 23 23 24 24 24 24 24 24 25 26 26 26 27 27 27 27 27 27 28 28 28 28 28 28 28 29 29 29 29 30 31 31 31 31 30 31 30 30 30 30 30 31 32 33 33 34 34 34 34 34 34 33 33 33 33 32 32 32 32 31
24 24 24 23 23 23 23 24 24 24 24 24 24 25 24 24 25 25 25 25 25 26 26 27 27 27 27 28 28 28 28 28 28 28 28 29 29 29 29 29 29 30 31 32 32 31 31 31 31 31 30 31 31 32 33 34 33 33 34 35 35 35 34 34 34 34 34 35 35 35 35 35 35 35
25 25 25 25 25 24 25 25 25 25 26 26 26 26 26 26 26 26 26 26 27 27 28 28 28 28 29 29 29 29 29 29 29 29 29 29 30 30 30 31 31 32 33 33 32 32 32 32 32 32 33 33 34 35 36 36 35 34 35 35 35 35 35 35 36 36 36 36 36 37 37 38 38 38
26 26 26 26 26 26 26 26 26 26 26 26 26 27 27 27 27 28 28 29 29 29 29 29 29 30 30 30 30 30 30 31 30 30 30 31 31 32 32 33 34 34 34 34 34 34 34 34 35 36 36 37 37 38 38 38 37 36 36 36 36 37 37 37 38 38 38 38 39 39 39 39 39 38
26 26 26 26 27 28 28 28 28 28 27 27 27 28 28 28 28 29 29 29 30 30 30 30 30 31 31 31 31 31 32 32 32 32 32 33 33 34 35 35 36 36 36 36 37 37 37 37 38 39 39 39 39 39 39 39 39 38 38 38 38 38 39 39 39 40 40 40 41 41 41 40 40 39
26 26 26 26 26 27 27 27 27 27 28 28 29 29 29 29 29 29 30 30 30 31 31 31 31 31 32 32 32 33 33 33 34 34 35 36 36 37 37 37 37 38 38 39 39 39 39 40 40 40 40 40 40 40 40 40 41 41 41 40 40 40 40 42 42 43 42 42 41 42 42 42 42 41
27 27 27 27 27 27 27 27 27 27 27 28 29 29 29 30 30 30 31 31 32 32 32 33 33 34 34 34 34 35 35 36 36 37 37 38 38 38 39 39 40 40 41 41 42 42 42 41 41 41 41 41 41 42 42 43 43 43 43 43 42 43 43 44 43 43 43 43 44 44 44 44 44 44
28 28 28 29 29 29 29 29 29 29 28 29 29 30 30 31 31 31 32 33 33 34 34 34 35 35 35 35 36 36 37 38 38 39 40 40 40 41 41 42 42 43 43 44 44 44 43 43 43 43 43 43 43 43 44 45 45 45 45 45 45 45 45 45 45 46 46 46 46 46 47 47 47 48
29 29 29 30 30 30 30 30 30 30 30 30 31 31 31 32 32 33 33 34 35 35 35 35 36 36 36 36 37 37 38 39 40 40 41 41 42 43 43 44 45 46 46 46 46 46 45 45 45 45 45 45 45 45 46 46 47 47 47 47 47 47 47 47 48 48 48 47 46 46 47 48 49 49
Wind_Direction
243 251 252 253 252 252 261 270 271 275 283 286 284 286 290 290 290 291 294 297 300 303 307 309 309 313 319 322 323 326 329 328 329 330 331 334 336 337 338 339 339 337 338 342 344 344 346 348 350 352 352 353 353 354 354 355 356 357 357 358 358 0 3 6 8 10 11 14 18 22 28 34 39 43
246 249 250 254 257 257 261 269 270 272 281 288 287 286 287 288 289 291 294 298 300 302 305 308 309 312 318 321 320 322 326 327 328 329 330 333 335 337 338 338 336 334 334 337 338 339 341 344 346 349 350 352 353 354 354 354 354 356 357 357 358 360 2 4 6 9 10 12 15 20 24 31 37 42
248 251 253 256 257 258 263 268 271 273 277 283 286 285 286 288 289 291 295 299 301 303 306 307 309 312 317 320 322 323 325 327 329 329 329 330 332 335 336 334 333 334 333 333 334 336 338 340 342 345 347 348 350 352 353 353 354 354 355 356 357 358 0 2 4 6 9 10 12 16 20 26 34 40
249 254 257 258 258 259 263 267 271 274 276 281 284 285 287 289 290 292 296 300 303 307 310 310 313 315 318 321 325 327 327 327 328 327 327 329 331 333 334 334 335 336 333 332 333 335 335 336 337 341 343 343 345 348 351 353 354 354 354 354 354 355 357 360 1 2 5 8 9 12 16 21 28 36
252 257 261 263 262 262 264 267 271 274 278 284 286 286 289 290 292 295 297 300 304 310 313 314 316 318 320 322 325 326 328 328 327 327 328 329 331 332 334 337 338 335 332 332 333 332 332 333 335 338 339 339 340 343 346 349 351 351 352 352 352 352 353 355 357 358 0 4 5 7 11 16 21 30
257 259 263 266 266 265 267 269 272 275 278 282 285 287 289 290 294 298 299 302 306 311 315 317 319 321 322 323 324 326 327 328 327 327 329 330 331 332 334 336 336 334 333 333 331 329 329 331 331 332 334 334 336 338 341 343 346 348 349 350 350 349 349 350 352 353 354 357 360 2 6 10 14 21
258 261 263 266 267 267 268 270 272 275 278 281 285 289 291 294 297 299 300 303 308 312 317 320 321 322 322 324 326 328 328 327 327 328 329 330 331 332 333 335 335 335 334 331 328 328 329 329 327 327 328 331 333 334 336 338 341 344 346 348 348 348 346 346 347 347 348 349 352 353 356 3 8 12
258 261 263 265 268 268 268 269 272 275 277 281 285 288 290 295 297 298 299 303 308 312 315 318 320 321 323 325 327 327 326 326 326 327 328 329 331 333 333 333 334 335 333 329 328 328 328 326 325 324 326 329 331 332 332 333 336 339 341 344 345 345 344 343 343 343 342 341 342 343 344 349 357 3
257 259 261 263 265 267 269 269 272 275 276 280 284 285 287 292 295 296 297 300 304 308 310 314 317 320 322 323 323 323 322 322 323 323 324 327 330 330 329 330 332 332 332 330 329 328 327 326 326 326 326 327 328 329 329 330 331 333 335 338 340 341 341 340 338 338 337 335 334 333 331 332 338 347
256 257 259 262 263 265 267 269 271 274 275 278 281 283 285 289 291 293 294 297 300 304 306 309 312 314 315 317 317 319 320 319 319 319 321 324 326 327 327 329 330 330 330 330 330 328 327 327 327 327 326 325 326 327 327 327 327 328 329 332 335 336 337 337 335 333 332 330 328 325 321 316 316 321
256 258 259 261 262 263 264 266 269 271 273 276 279 281 283 286 288 290 293 296 299 301 303 305 307 308 310 312 314 316 317 316 317 318 319 322 325 327 327 328 328 328 328 329 328 327 326 326 326 325 325 325 326 325 324 324 324 324 325 327 330 332 333 333 332 330 327 324 322 320 316 309 303 299
256 257 258 259 261 263 263 265 269 270 272 274 277 279 281 283 286 288 291 293 296 298 299 301 303 305 308 310 312 313 314 315 317 319 319 320 322 324 324 325 325 326 326 327 327 326 325 324 324 324 324 325 325 323 322 321 320 320 321 323 325 329 331 330 329 327 324 320 317 314 312 307 299 291
257 258 258 259 261 263 262 262 264 267 270 274 276 279 280 282 283 285 287 289 292 294 296 298 300 302 304 307 309 311 313 314 315 317 318 319 319 320 321 322 324 324 323 323 324 324 323 323 323 323 323 324 323 322 321 320 319 319 319 320 321 325 327 327 326 324 322 318 314 310 307 304 298 291
258 258 259 261 262 263 262 262 262 264 267 272 275 277 279 280 281 283 285 287 289 291 293 295 297 299 301 304 306 308 310 311 313 315 316 316 317 318 318 319 321 323 322 320 320 322 322 321 321 323 323 324 323 322 321 321 320 319 318 317 318 320 323 324 322 321 319 316 312 309 305 301 296 290
258 258 261 263 263 263 263 264 264 265 267 270 272 274 276 276 277 279 282 284 287 289 291 293 295 296 298 301 304 305 306 307 309 311 312 313 314 316 316 316 317 320 321 318 316 318 320 320 320 321 322 323 322 321 320 319 317 315 314 313 314 316 318 319 319 317 315 312 309 307 303 299 295 289
258 259 262 264 264 264 264 265 265 265 267 269 271 273 274 275 276 277 279 282 284 287 289 291 292 294 296 299 301 302 303 304 306 308 309 310 311 312 313 312 312 315 317 316 313 313 317 318 318 319 320 319 318 317 316 315 313 311 311 310 310 311 314 315 316 315 313 309 305 303 301 298 294 289
258 260 262 263 263 264 265 267 267 267 267 268 270 273 275 276 276 277 278 279 281 283 286 287 289 291 293 295 297 299 301 302 304 305 307 308 309 309 309 308 309 311 314 313 310 309 313 316 316 315 316 316 315 314 314 314 312 310 309 307 305 306 308 309 311 312 310 307 303 300 298 296 293 289
259 260 262 263 264 265 266 267 268 268 268 269 270 273 275 277 277 277 278 279 280 282 283 284 286 289 290 291 294 297 299 299 300 302 304 305 305 305 305 306 307 309 311 311 309 307 310 313 313 312 313 314 313 313 313 313 312 310 308 305 302 301 302 303 306 307 307 305 302 299 297 294 291 288
260 261 262 263 264 266 267 269 269 269 268 269 270 272 274 275 276 277 279 281 282 283 283 283 285 288 289 289 291 294 296 297 298 300 302 303 303 304 304 305 306 308 309 309 307 306 307 309 309 309 311 311 310 310 311 311 310 309 307 305 302 299 299 300 302 302 302 302 301 299 297 293 289 287
259 260 261 262 264 266 267 269 271 271 270 269 270 271 272 274 276 277 279 281 282 283 283 283 284 286 287 287 288 291 293 295 297 299 300 301 303 303 303 304 306 307 308 308 306 306 307 308 308 308 308 308 307 307 308 309 309 307 307 306 304 300 298 297 298 298 298 298 298 297 297 294 289 286
258 260 261 263 265 266 267 269 270 272 271 270 270 271 272 274 275 277 279 280 280 281 283 283 284 285 285 287 288 290 291 294 297 298 299 301 301 302 302 303 304 305 306 307 307 306 308 309 309 308 307 306 305 305 306 307 307 306 305 304 303 301 298 295 295 294 295 294 294 294 294 294 291 288
258 260 262 263 265 266 267 269 269 270 270 270 271 272 273 274 276 277 279 279 280 282 283 283 284 284 285 287 289 290 292 294 296 297 298 299 300 300 301 302 303 304 304 306 307 307 308 309 309 309 308 307 305 304 304 304 304 304 303 303 302 300 297 296 294 293 292 292 291 290 291 292 291 290
259 260 262 264 265 266 267 268 268 268 269 270 271 272 273 275 276 277 278 279 280 282 282 282 283 284 285 286 288 289 291 293 295 295 296 298 299 300 301 302 302 302 302 304 306 307 307 308 308 308 308 307 306 305 305 304 302 302 303 303 302 300 298 297 295 293 291 290 289 289 289 289 289 290
259 260 262 263 264 265 267 268 268 268 268 270 272 273 274 275 276 277 279 280 281 282 282 282 282 283 284 286 287 288 291 293 294 295 295 296 297 299 300 301 300 299 299 302 305 305 306 307 308 308 308 306 305 306 306 304 303 302 303 303 302 300 299 298 296 294 293 291 289 288 288 287 286 287
260 261 262 263 263 264 266 267 267 267 269 272 274 275 275 276 277 278 279 280 281 281 282 282 283 283 284 285 287 288 290 292 293 294 295 296 296 297 298 298 298 298 298 300 303 303 304 305 306 307 308 307 306 306 305 305 304 303 304 304 302 301 300 299 298 296 295 294 291 289 287 286 284 284
259 261 262 263 264 266 268 268 268 268 269 271 273 274 275 276 278 278 279 280 281 281 281 282 283 284 285 286 287 289 290 291 291 293 294 296 296 297 297 297 297 297 298 300 301 301 302 302 303 305 306 307 308 308 307 306 305 304 304 304 303 301 300 299 298 297 297 296 294 291 288 285 283 281
259 261 263 263 265 268 270 271 270 270 270 271 273 274 275 276 278 278 278 279 280 280 281 283 284 286 287 288 289 290 291 291 292 293 295 296 296 296 296 296 296 297 298 300 301 300 300 301 301 302 303 304 306 307 308 307 307 306 305 305 304 303 301 299 298 297 297 296 295 294 291 288 284 282
259 261 263 264 266 269 271 271 271 271 271 272 273 273 275 276 277 278 279 280 280 281 282 283 284 287 288 289 290 290 290 291 292 294 295 296 297 297 297 297 297 297 299 300 300 299 299 299 300 301 301 302 303 304 306 307 307 308 307 307 305 304 303 301 299 298 297 297 296 295 293 291 288 285
261 262 263 265 266 269 271 271 271 271 271 271 272 273 274 276 277 278 280 281 282 283 283 283 284 286 287 288 289 290 290 291 292 294 295 296 296 296 297 298 298 298 299 300 300 300 299 299 300 300 300 300 300 300 302 304 305 306 306 307 307 305 304 304 302 300 300 299 298 297 295 293 290 288
267 265 264 265 266 267 270 271 272 272 273 273 273 274 276 277 278 279 281 282 283 283 284 284 284 285 286 288 290 290 291 291 292 293 294 295 296 296 297 298 298 298 299 299 300 301 299 299 299 300 300 299 298 298 300 301 302 302 303 304 305 305 305 305 304 303 302 300 300 299 298 296 294 291
269 267 266 266 265 267 270 272 272 273 275 275 275 277 279 279 279 280 281 282 282 283 284 283 284 286 288 289 291 292 291 291 292 292 293 294 295 296 297 297 298 298 298 298 299 300 299 298 298 298 299 299 298 297 298 298 298 299 300 301 301 301 302 304 304 304 303 302 301 301 300 299 296 294
271 271 270 268 267 268 270 272 274 275 276 276 276 279 280 280 280 281 282 283 284 284 284 284 285 287 288 289 291 291 291 291 291 292 292 293 294 295 296 296 296 297 297 296 297 297 297 297 297 296 297 297 297 297 297 296 296 297 298 298 298 298 299 300 301 301 301 300 300 300 300 299 298 296
273 274 273 272 272 271 270 273 274 275 275 276 277 279 281 282 282 283 283 285 286 286 286 286 287 287 288 289 290 290 290 290 290 291 291 292 293 294 294 294 295 295 296 295 295 295 295 295 296 296 295 295 296 296 296 295 295 296 296 296 297 297 297 297 298 299 299 299 298 298 297 297 297 297
273 273 274 275 275 274 272 273 275 275 276 277 278 280 281 282 283 283 284 285 286 286 286 287 287 287 288 288 289 289 289 289 290 290 291 291 292 293 293 293 293 294 294 294 294 294 294 295 295 295 295 295 294 295 294 293 293 295 296 296 296 296 296 296 296 296 296 296 295 295 295 294 295 295
272 272 273 275 276 275 274 275 276 277 278 279 280 281 282 282 283 284 286 287 287 286 286 287 287 287 287 288 289 289 289 290 290 290 290 291 291 292 292 292 293 293 293 293 293 293 294 295 295 295 295 295 294 294 293 292 294 296 296 295 295 295 295 295 295 295 294 294 293 293 292 292 293 293
272 272 273 275 275 275 274 276 277 278 280 281 282 283 283 283 283 285 287 288 287 287 288 288 288 288 289 289 290 290 290 291 291 291 292 292 292 292 292 292 292 293 292 292 293 294 294 294 294 293 293 293 293 291 290 291 293 295 295 293 293 294 294 294 294 294 294 293 293 292 291 291 291 292
272 272 273 275 276 276 275 276 277 279 280 281 282 283 283 283 284 285 287 287 287 288 289 289 288 289 290 290 291 291 291 292 292 292 292 292 292 292 293 293 293 293 293 294 294 295 294 293 293 292 292 292 291 290 290 291 293 294 293 293 293 293 294 293 293 293 292 292 292 291 291 290 290 290
272 272 273 276 276 276 277 278 279 280 280 281 282 283 283 283 284 285 286 286 287 289 289 289 288 289 290 290 290 291 291 292 292 292 293 293 293 293 293 293 293 294 294 295 295 294 293 293 292 293 293 292 291 291 291 292 293 293 293 293 293 293 293 293 292 292 291 291 290 290 289 289 288 288
272 273 274 276 276 276 277 278 279 280 280 281 281 282 283 284 285 285 286 286 288 289 289 289 288 289 289 290 290 290 291 291 292 292 293 293 294 294 294 294 294 294 294 294 294 293 292 292 292 292 292 291 290 290 291 291 291 292 293 293 292 292 292 292 291 291 291 291 290 290 289 289 288 288
272 273 274 275 275 276 276 277 277 278 279 280 281 282 283 284 284 285 285 286 287 289 289 288 288 289 289 290 290 290 291 291 291 292 292 292 292 292 292 293 293 293 293 293 292 292 291 291 291 291 291 290 290 290 289 289 289 291 292 291 291 291 291 291 291 291 291 291 291 290 290 290 289 288
273 274 275 276 276 275 276 276 277 277 277 278 279 280 281 282 283 284 285 286 287 288 288 288 288 289 289 290 290 290 290 291 291 291 291 291 291 291 292 292 292 292 292 292 291 291 290 290 290 290 290 290 290 290 289 288 289 290 290 290 290 290 290 289 289 289 289 290 290 289 289 289 289 288
274 274 276 276 277 276 276 276 276 277 277 278 278 278 279 281 282 283 284 285 286 286 287 288 289 289 289 288 289 289 290 290 290 290 290 290 290 291 291 291 291 291 291 291 290 290 290 290 290 289 289 289 289 289 288 288 288 289 289 290 290 290 289 290 290 289 288 288 288 287 287 288 287 287
274 274 275 275 276 276 276 276 277 277 278 278 279 279 280 281 282 283 284 285 285 285 286 286 287 288 288 288 287 288 288 289 289 289 289 290 290 290 290 290 290 290 290 290 290 290 289 289 288 288 288 288 288 288 287 287 288 288 288 289 289 289 289 290 289 288 287 287 286 286 286 285 285 284
274 274 275 275 276 276 276 276 277 277 278 278 279 280 280 281 281 283 284 285 285 285 285 285 286 287 287 287 287 287 287 288 288 289 289 289 289 289 289 290 290 290 290 290 289 289 288 288 288 287 287 287 287 287 287 287 287 287 287 288 288 288 289 289 288 288 288 287 286 286 285 284 283 282
273 274 274 275 275 276 276 276 276 277 277 278 279 279 280 280 281 283 284 284 285 285 285 286 286 287 287 287 287 287 287 287 288 288 288 288 288 288 288 289 289 289 289 289 288 288 287 287 287 286 286 285 286 286 286 286 287 287 287 287 287 287 287 288 288 288 287 287 286 286 285 284 284 283